When you browse on this site, cookies collect data to enhance your experience and personalize the content and advertising you see.
Visit our Privacy Policy to learn more. By continuing to use the site, you agree to this use of cookies and data.
  • In Hungary
  • List of Countries
  • For 7 days
  • Water Temperature
  • Weather Map
  • News
  • Weather Widgets
  • user-avatar
    Login

    Hourly Weather Sultan-Saly

    Today, 21 October, Monday

    Time Temperature Precipitation Wind Pressure Humidity
    00:00 +13°C° 0 mm 3 mps 760 mmHg 75%
    01:00 +13°C° 0 mm 3 mps 760 mmHg 76%
    02:00 +12°C° 0 mm 3 mps 760 mmHg 77%
    03:00 +13°C° 0 mm 2 mps 760 mmHg 81%
    04:00 +11°C° 0 mm 3 mps 760 mmHg 81%
    05:00 +11°C° 0 mm 3 mps 761 mmHg 81%
    06:00 +11°C° 0 mm 3 mps 761 mmHg 81%
    07:00 +12°C° 0 mm 3 mps 761 mmHg 76%
    08:00 +13°C° 0 mm 4 mps 761 mmHg 72%
    09:00 +14°C° 0 mm 4 mps 761 mmHg 68%
    10:00 +17°C° 0 mm 4 mps 761 mmHg 60%
    11:00 +18°C° 0 mm 4 mps 761 mmHg 52%
    12:00 +20°C° 0 mm 4 mps 761 mmHg 45%
    13:00 +21°C° 0 mm 4 mps 761 mmHg 43%
    14:00 +21°C° 0 mm 4 mps 761 mmHg 41%
    15:00 +22°C° 0 mm 3 mps 760 mmHg 40%
    16:00 +20°C° 0 mm 3 mps 760 mmHg 44%
    17:00 +19°C° 0 mm 3 mps 760 mmHg 49%
    18:00 +17°C° 0 mm 3 mps 760 mmHg 54%
    19:00 +17°C° 0 mm 3 mps 760 mmHg 55%
    20:00 +16°C° 0 mm 3 mps 760 mmHg 57%
    21:00 +14°C° 0 mm 3 mps 760 mmHg 58%
    22:00 +14°C° 0 mm 3 mps 760 mmHg 60%
    23:00 +14°C° 0 mm 2 mps 760 mmHg 61%

    Tomorrow, 22 October, Tuesday

    Time Temperature Precipitation Wind Pressure Humidity
    00:00 +14°C° 0 mm 2 mps 760 mmHg 62%
    01:00 +13°C° 0 mm 2 mps 760 mmHg 64%
    02:00 +13°C° 0 mm 2 mps 760 mmHg 65%
    03:00 +12°C° 0 mm 1 mps 760 mmHg 66%
    04:00 +12°C° 0 mm 1 mps 760 mmHg 68%
    05:00 +12°C° 0 mm 2 mps 760 mmHg 69%
    06:00 +12°C° 0 mm 2 mps 760 mmHg 71%
    07:00 +12°C° 0 mm 2 mps 760 mmHg 67%
    08:00 +13°C° 0 mm 2 mps 760 mmHg 64%
    09:00 +14°C° 0 mm 2 mps 760 mmHg 61%
    10:00 +16°C° 0 mm 2 mps 760 mmHg 55%
    11:00 +17°C° 0 mm 2 mps 760 mmHg 50%
    12:00 +19°C° 0 mm 2 mps 760 mmHg 44%
    13:00 +19°C° 0 mm 2 mps 760 mmHg 43%
    14:00 +21°C° 0 mm 1 mps 760 mmHg 41%
    15:00 +21°C° 0 mm 1 mps 760 mmHg 40%
    16:00 +20°C° 0 mm 1 mps 759 mmHg 43%
    17:00 +19°C° 0 mm 1 mps 759 mmHg 46%
    18:00 +18°C° 0 mm 1 mps 759 mmHg 49%
    19:00 +16°C° 0 mm 1 mps 759 mmHg 51%
    20:00 +16°C° 0 mm 1 mps 760 mmHg 53%
    21:00 +15°C° 0 mm 1 mps 760 mmHg 55%
    22:00 +15°C° 0 mm 1 mps 759 mmHg 56%
    23:00 +14°C° 0 mm 1 mps 759 mmHg 58%

    Day after tomorrow, 23 October, Wednesday

    Time Temperature Precipitation Wind Pressure Humidity
    00:00 +13°C° 0 mm 0 mps 759 mmHg 59%
    01:00 +13°C° 0 mm 0 mps 759 mmHg 60%
    02:00 +13°C° 0 mm 0 mps 759 mmHg 61%
    03:00 +12°C° 0 mm 0 mps 759 mmHg 62%
    04:00 +12°C° 0 mm 0 mps 759 mmHg 63%
    05:00 +12°C° 0 mm 0 mps 759 mmHg 64%
    06:00 +12°C° 0 mm 0 mps 759 mmHg 64%
    07:00 +14°C° 0 mm 1 mps 759 mmHg 62%
    08:00 +15°C° 0 mm 1 mps 759 mmHg 59%
    09:00 +15°C° 0 mm 1 mps 760 mmHg 56%
    10:00 +18°C° 0 mm 1 mps 760 mmHg 53%
    11:00 +19°C° 0 mm 1 mps 759 mmHg 49%
    12:00 +20°C° 0 mm 1 mps 759 mmHg 45%
    13:00 +21°C° 0 mm 1 mps 759 mmHg 44%
    14:00 +21°C° 0 mm 1 mps 759 mmHg 43%
    15:00 +22°C° 0 mm 1 mps 759 mmHg 41%
    16:00 +21°C° 0 mm 1 mps 759 mmHg 45%
    17:00 +19°C° 0 mm 1 mps 759 mmHg 48%
    18:00 +18°C° 0 mm 1 mps 758 mmHg 51%
    19:00 +18°C° 0 mm 1 mps 759 mmHg 53%
    20:00 +16°C° 0 mm 1 mps 759 mmHg 54%
    21:00 +16°C° 0 mm 1 mps 759 mmHg 56%
    22:00 +15°C° 0 mm 1 mps 759 mmHg 57%
    23:00 +15°C° 0 mm 1 mps 758 mmHg 58%

    24 October, Thursday

    Time Temperature Precipitation Wind Pressure Humidity
    00:00 +14°C° 0 mm 1 mps 758 mmHg 60%
    01:00 +14°C° 0 mm 1 mps 758 mmHg 60%
    02:00 +13°C° 0 mm 1 mps 758 mmHg 61%
    03:00 +13°C° 0 mm 1 mps 758 mmHg 62%
    04:00 +13°C° 0 mm 1 mps 758 mmHg 62%
    05:00 +13°C° 0 mm 1 mps 758 mmHg 62%
    06:00 +12°C° 0 mm 1 mps 758 mmHg 63%
    07:00 +13°C° 0 mm 1 mps 759 mmHg 59%
    08:00 +14°C° 0 mm 1 mps 759 mmHg 56%
    09:00 +15°C° 0 mm 2 mps 759 mmHg 52%
    10:00 +16°C° 0 mm 2 mps 759 mmHg 47%
    11:00 +18°C° 0 mm 2 mps 758 mmHg 42%
    12:00 +19°C° 0 mm 2 mps 758 mmHg 37%
    13:00 +20°C° 0 mm 2 mps 758 mmHg 36%
    14:00 +20°C° 0 mm 2 mps 758 mmHg 34%
    15:00 +22°C° 0 mm 1 mps 757 mmHg 32%
    16:00 +20°C° 0 mm 2 mps 757 mmHg 35%
    17:00 +18°C° 0 mm 2 mps 757 mmHg 38%
    18:00 +17°C° 0 mm 2 mps 757 mmHg 41%
    19:00 +16°C° 0 mm 2 mps 757 mmHg 43%
    20:00 +16°C° 0 mm 2 mps 757 mmHg 45%
    21:00 +15°C° 0 mm 2 mps 758 mmHg 47%
    22:00 +14°C° 0 mm 2 mps 757 mmHg 49%
    23:00 +14°C° 0 mm 2 mps 757 mmHg 51%

    25 October, Friday

    Time Temperature Precipitation Wind Pressure Humidity
    00:00 +13°C° 0 mm 2 mps 757 mmHg 53%
    01:00 +13°C° 0 mm 2 mps 757 mmHg 54%
    02:00 +12°C° 0 mm 2 mps 757 mmHg 56%
    03:00 +12°C° 0 mm 2 mps 757 mmHg 57%
    04:00 +12°C° 0 mm 2 mps 757 mmHg 59%
    05:00 +10°C° 0 mm 2 mps 757 mmHg 60%
    06:00 +10°C° 0 mm 3 mps 757 mmHg 62%
    07:00 +11°C° 0 mm 3 mps 758 mmHg 59%
    08:00 +12°C° 0 mm 3 mps 758 mmHg 57%
    09:00 +12°C° 0 mm 3 mps 758 mmHg 54%
    10:00 +14°C° 0 mm 4 mps 758 mmHg 49%
    11:00 +17°C° 0 mm 4 mps 758 mmHg 43%
    12:00 +18°C° 0 mm 4 mps 758 mmHg 38%
    13:00 +19°C° 0 mm 5 mps 758 mmHg 36%
    14:00 +19°C° 0 mm 5 mps 758 mmHg 34%
    15:00 +20°C° 0 mm 5 mps 758 mmHg 32%
    16:00 +18°C° 0 mm 4 mps 758 mmHg 35%
    17:00 +17°C° 0 mm 4 mps 758 mmHg 39%
    18:00 +16°C° 0 mm 3 mps 757 mmHg 42%
    19:00 +14°C° 0 mm 3 mps 758 mmHg 43%
    20:00 +13°C° 0 mm 3 mps 758 mmHg 45%
    21:00 +13°C° 0 mm 3 mps 758 mmHg 46%
    22:00 +12°C° 0 mm 3 mps 758 mmHg 48%
    23:00 +12°C° 0 mm 3 mps 758 mmHg 49%

    26 October, Saturday

    Time Temperature Precipitation Wind Pressure Humidity
    00:00 +11°C° 0 mm 3 mps 758 mmHg 50%
    01:00 +11°C° 0 mm 3 mps 758 mmHg 52%
    02:00 +10°C° 0 mm 3 mps 758 mmHg 53%
    03:00 +10°C° 0 mm 3 mps 758 mmHg 55%
    04:00 +10°C° 0 mm 3 mps 758 mmHg 57%
    05:00 +10°C° 0 mm 3 mps 758 mmHg 59%
    06:00 +9°C° 0 mm 3 mps 758 mmHg 61%
    07:00 +10°C° 0 mm 4 mps 758 mmHg 60%
    08:00 +11°C° 0 mm 4 mps 758 mmHg 60%
    09:00 +12°C° 0 mm 4 mps 758 mmHg 59%
    10:00 +14°C° 0 mm 4 mps 759 mmHg 57%
    11:00 +17°C° 0 mm 4 mps 759 mmHg 55%
    12:00 +19°C° 0 mm 4 mps 759 mmHg 53%
    13:00 +19°C° 0 mm 5 mps 758 mmHg 50%
    14:00 +20°C° 0 mm 5 mps 758 mmHg 46%
    15:00 +20°C° 0 mm 5 mps 758 mmHg 43%
    16:00 +19°C° 0 mm 4 mps 758 mmHg 46%
    17:00 +18°C° 0 mm 3 mps 758 mmHg 48%
    18:00 +17°C° 0 mm 3 mps 758 mmHg 51%
    19:00 +16°C° 0 mm 3 mps 758 mmHg 53%
    20:00 +14°C° 0 mm 3 mps 758 mmHg 55%
    21:00 +14°C° 0 mm 3 mps 758 mmHg 57%
    22:00 +13°C° 0 mm 3 mps 758 mmHg 57%
    23:00 +13°C° 0 mm 3 mps 758 mmHg 58%

    27 October, Sunday

    Time Temperature Precipitation Wind Pressure Humidity
    00:00 +12°C° 0 mm 3 mps 758 mmHg 58%
    01:00 +12°C° 0 mm 3 mps 758 mmHg 59%
    02:00 +11°C° 0 mm 3 mps 758 mmHg 61%
    03:00 +11°C° 0 mm 3 mps 758 mmHg 62%
    04:00 +11°C° 0 mm 3 mps 758 mmHg 62%
    05:00 +10°C° 0 mm 3 mps 758 mmHg 63%
    06:00 +10°C° 0 mm 3 mps 758 mmHg 64%
    07:00 +11°C° 0 mm 3 mps 758 mmHg 60%
    08:00 +12°C° 0 mm 4 mps 758 mmHg 56%
    09:00 +13°C° 0 mm 4 mps 758 mmHg 52%
    10:00 +15°C° 0 mm 4 mps 758 mmHg 47%
    11:00 +18°C° 0 mm 4 mps 758 mmHg 42%
    12:00 +19°C° 0 mm 4 mps 758 mmHg 36%
    13:00 +20°C° 0 mm 4 mps 757 mmHg 35%
    14:00 +20°C° 0 mm 4 mps 757 mmHg 34%
    15:00 +21°C° 0 mm 4 mps 756 mmHg 33%
    16:00 +20°C° 0 mm 4 mps 756 mmHg 36%
    17:00 +18°C° 0 mm 3 mps 756 mmHg 40%
    18:00 +17°C° 0 mm 3 mps 756 mmHg 43%
    19:00 +16°C° 0 mm 3 mps 755 mmHg 45%
    20:00 +16°C° 0 mm 3 mps 755 mmHg 47%
    21:00 +14°C° 0 mm 3 mps 755 mmHg 49%
    22:00 +14°C° 0 mm 2 mps 755 mmHg 50%
    23:00 +14°C° 0 mm 2 mps 755 mmHg 52%
    Show more